2022-095C (53369 NORAD) Tracking and Keplerian Element Data

This shows tracking and keplerian element data for the satellite.

Feedback or suggestion? Click here.




ElementValue
Catalog53369
Name2022-095C
Epoch Orbit746
Epoch Day270.18935984
Epoch Year2022
RAAN343.5942
Inclination97.405
Eccentricity0.007643
Argument of Perigee263.5659
Mean Anonmoly180.5929
Mean Motion15.25034418
Decay Rate7.182E-05
L11 53369U 22095C 22270.18935984 .00007182 00000+0 26738-3 0 9990
L22 53369 97.4050 343.5942 0076430 263.5659 180.5929 15.25034418 7463

Live tracking and technical data element details for 2022-095C (NORAD 53369). 2022-095C can be tracked NOW for your location showing map with azimuth and elevation plus other details from your city location.

Track the satellite on the map from your city or location and see movement details for azimuth, elevation, latitude, longitude, range, height, and movement on the map or in text.







IsCatalogInMostPopularTable: catalog: 53369, numindb: 2
Update: records affected: 1



GetName: 53369 2022-095C

Hit Count: updated at: Thu, 29 Sep 2022 12:05:33 GMT